Regional Weather Roundup
Issued by NWS

Home | Current Version | Previous Version | Text Only | Print | Product List | Glossary On
Versions: 1 2 3 4 5 6 7 8 9 10 11 12 13 14 15 16 17 18 19 20 21 22 23 24 25 26 27 28 29 30 31 32 33 34 35 36 37 38 39 40 41 42 43 44 45 46 47 48 49 50
000
ASUS43 KBIS 280110
RWRND

NORTH DAKOTA REGIONAL WEATHER ROUNDUP
NATIONAL WEATHER SERVICE BISMARCK ND
700 PM CST THU NOV 27 2014

NOTE: "FAIR" INDICATES FEW OR NO CLOUDS BELOW 12,000 FEET WITH NO
SIGNIFICANT WEATHER AND/OR OBSTRUCTIONS TO VISIBILITY.


NDZ001>003-009>011-017-280200-
NORTHWEST NORTH DAKOTA

CITY           SKY/WX    TMP DP  RH WIND       PRES   REMARKS
WILLISTON      CLOUDY    19  13  77 E9        29.84F WCI   8
MINOT          LGT SNOW  12   9  85 E12       29.98F FOG     WCI  -2
MINOT AFB      CLOUDY    12   9  90 SE14      29.97F WCI  -4
$$

NDZ018>021-031>035-040>046-280200-
SOUTHWEST NORTH DAKOTA

CITY           SKY/WX    TMP DP  RH WIND       PRES   REMARKS
BISMARCK       FLURRIES  12   7  80 SE17      29.97F WCI  -5
DICKINSON      PTCLDY    24  19  81 S9        29.78S WCI  14
GARRISON         N/A     13   9  84 SE12      29.94S WCI  -1
HETTINGER ARPT CLEAR     23  19  85 SE9       29.84F WCI  13
$$

NDZ004>008-012>016-024-026-027-054-280200-
NORTHEAST NORTH DAKOTA

CITY           SKY/WX    TMP DP  RH WIND       PRES   REMARKS
GRAND FORKS    FLURRIES   6  -2  69 S8        30.24F WCI  -7
GRND FRKS AFB  LGT SNOW   5   0  78 S7        30.22F WCI  -7
DEVILS LAKE    CLOUDY     7  -4  61 SE14      30.08F WCI -10
$$

NDZ022-023-025-028>030-036>039-047>053-280200-
SOUTHEAST NORTH DAKOTA

CITY           SKY/WX    TMP DP  RH WIND       PRES   REMARKS
FARGO          CLOUDY     9  -2  61 SE12      30.23F WCI  -6
JAMESTOWN      LGT SNOW   6   1  80 SE14      30.08F WCI -11
$$




USA.gov is the U.S. government's official web portal to all federal, state and local government web resources and services.